Regional Weather Roundup
Issued by NWS

Home | Current Version | Previous Version | Graphics & Text | Print | Product List | Glossary On
Versions: 1 2 3 4 5 6 7 8 9 10 11 12 13 14 15 16 17 18 19 20 21 22 23 24 25 26 27 28 29 30 31 32 33 34 35 36 37 38 39 40 41 42 43 44 45 46 47 48 49 50
000
ASUS43 KLOT 290421
RWRIL

ILLINOIS REGIONAL WEATHER ROUNDUP
NATIONAL WEATHER SERVICE CHICAGO/ROMEOVILLE IL
1100 PM CDT TUE JUL 28 2015

NOTE: "FAIR" INDICATES FEW OR NO CLOUDS BELOW 12,000 FEET WITH NO
SIGNIFICANT WEATHER AND/OR OBSTRUCTIONS TO VISIBILITY.

* THESE STATIONS ARE NOT UNDER NWS QUALITY CONTROL. THEY ALSO MAY NOT
  REPORT WEATHER SUCH AS PRECIPITATION OR FOG.

ILZ001-002-007-009-015-016-024-290500-
NORTHWEST ILLINOIS

CITY           SKY/WX    TMP DP  RH WIND       PRES   REMARKS
MOLINE         CLOUDY    80  75  84 CALM      29.94R HX  85
STERLING*      CLOUDY    75  72  88 CALM      29.95R
SAVANNA*       CLOUDY    76  73  91 CALM      29.95R
$$

ILZ003-004-008-010-011-017-018-290500-
NORTH CENTRAL ILLINOIS

CITY           SKY/WX    TMP DP  RH WIND       PRES   REMARKS
ROCKFORD       CLOUDY    77  73  87 SW5       29.96R
FREEPORT*      CLOUDY    74  73  95 SW3       29.98R
ROCHELLE*      CLOUDY    75  73  95 CALM      29.95R
DE KALB*       MOCLDY    75  73  92 SW7       29.96R
PERU*          MOCLDY    78  69  73 S6        29.95R HX  80
$$

ILZ005-006-012>014-019>023-290500-
NORTHEAST ILLINOIS

CITY           SKY/WX    TMP DP  RH WIND       PRES   REMARKS
CHICAGO-OHARE  MOCLDY    79  74  84 S5        29.93F HX  82
CHICAGO-MIDWAY MOCLDY    84  73  69 S5        29.93F HX  90
AURORA         PTCLDY    77  71  82 CALM      29.94S
LANSING*       CLEAR     76  69  80 S5        29.95F
JOLIET*        CLEAR     76  74  95 CALM      29.94S
WAUKEGAN       PTCLDY    72  70  93 CALM      29.93S
DUPAGE AIRPORT PTCLDY    78  73  84 S5        29.93F HX  81
KANKAKEE*      PTCLDY    77  76  95 SE3       29.96S
WHEELING       CLEAR     79  72  79 CALM      29.94S HX  82
MORRIS*        PTCLDY    76  74  92 SE3       29.92F
ROMEOVILLE*    CLEAR     76  72  86 SE6       29.94S
NORTHERLY ISL    N/A     82  70  66 S3          N/A  HX  86
$$

LMZ740>746-290500-
SOUTHERN LAKE MICHIGAN

STATION/POSITION SKY/WX   TEMP    WIND        PRES    VSBY  WAVE
                          AIR SEA DIR/SP/G                  HT/PER
                          (F)     (DEG/KT/KT) (MB)    (MI)  (FT/S)
HARRISON CRIB              82     170/  8/  9   N/A
BURNHAM HARBOR             81     170/  3/  5   N/A
CALUMET HARBOR             83     200/  3/  4   N/A
BURNS HARBOR               83     180/  3/  5 1014.9R
MICHIGAN CITY              81     130/  5/  7   N/A
MICHIGAN CITY 6N           78 76  170/  6/  6   N/A           0
ST. JOSEPH                 79 77  190/  8/  8   N/A           0
$$

ILZ025>027-034>036-040-047-049-050-058-095>099-290500-
WEST-CENTRAL ILLINOIS

CITY           SKY/WX    TMP DP  RH WIND       PRES   REMARKS
QUINCY         CLEAR     83  80  91 S5        29.95R HX  95
GALESBURG*     MOCLDY    80  77  91 CALM      29.97R HX  85
MACOMB*        PTCLDY    83  79  88 S5        29.95R HX  93
JACKSONVILLE*  PTCLDY    82  79  90 SE6       29.95S HX  93
PITTSFIELD*    CLEAR     82  79  89 CALM      29.98R HX  93
$$

ILZ028>032-037-038-041>044-048-051>054-059>061-290500-
CENTRAL ILLINOIS

CITY           SKY/WX    TMP DP  RH WIND       PRES   REMARKS
PONTIAC        PTCLDY    75  74  98 CALM      29.96S
BLOOMINGTON    CLEAR     74  73  96 S8        29.97S
DECATUR        CLEAR     75  72  90 CALM      29.97S
PEORIA         PTCLDY    81  72  74 CALM      29.96R HX  85
LACON*         MOCLDY    76  72  86 CALM      29.95R
LINCOLN*       PTCLDY    76  73  88 SE3       29.96R
SPRINGFIELD    PTCLDY    82  76  81 S3        29.96R HX  89
TAYLORVILLE    PTCLDY    79  75  89 SE5       29.97R HX  82
$$

ILZ033-039-045-046-055>057-062-063-290500-
EAST-CENTRAL ILLINOIS

CITY           SKY/WX    TMP DP  RH WIND       PRES   REMARKS
CHAMPAIGN      PTCLDY    74  72  93 CALM      29.97F
DANVILLE*      PTCLDY    73  73  98 CALM      29.94F
RANTOUL*       PTCLDY    76  75  95 SW3       29.97S
MATTOON        PTCLDY    76  71  85 CALM      29.96F
PARIS*         PTCLDY    73  73  98 CALM      29.98S FOG
$$

ILZ079-100>102-290500-
SOUTHWEST ILLINOIS

CITY           SKY/WX    TMP DP  RH WIND       PRES   REMARKS
ALTON          PTCLDY    77  75  94 CALM      29.97R
BELLEVILLE     MOCLDY    79  79 100 CALM      29.94S HX  84
CAHOKIA*       MOCLDY    82  76  81 CALM      29.95R HX  89
SPARTA*        MOCLDY    78  76  91 SE7       29.97F HX  81
$$

ILZ064>066-069>071-074>076-080>082-084>086-088>090-092>094-290500-
SOUTH-CENTRAL ILLINOIS

CITY           SKY/WX    TMP DP  RH WIND       PRES   REMARKS
CARBONDALE     CLOUDY    78  76  93 CALM      29.97F HX  81
CAIRO*         CLOUDY    79  74  84 SE5       29.97F HX  83
EFFINGHAM*     MOCLDY    77  73  88 S3        29.98F
MARION         CLOUDY    79  77  94 S6        29.99S HX  83
MT. VERNON     CLOUDY    77  70  78 CALM      29.97F
CENTRALIA*     CLOUDY    78  73  83 SE5       29.96F HX  81
SALEM*         MOCLDY    83  74  76 SE3       29.97F HX  89
METROPOLIS*    CLOUDY    75  75 100 CALM      29.99F
$$

ILZ067-068-072-073-078-083-087-091-290500-
SOUTHEAST ILLINOIS

CITY           SKY/WX    TMP DP  RH WIND       PRES   REMARKS
LAWRENCEVILLE  MOCLDY    79  76  90 S5        29.96F HX  83
FLORA*         MOCLDY    76  73  90 CALM      29.97F
FAIRFIELD*     CLOUDY    75  74  96 CALM      29.95F
HARRISBURG*    CLOUDY    77  77 100 CALM      29.99F
ROBINSON*      PTCLDY    76  75  96 CALM      29.96F FOG
CARMI*         CLOUDY    74  69  85 SW3       29.97F
$$

ABBREVIATIONS USED IN REMARKS
   TC - TEMPERATURE IN CELSIUS
  WCI - WIND CHILL INDEX
   HX - HEAT INDEX
  VSB - VISIBILITY
$$




USA.gov is the U.S. government's official web portal to all federal, state and local government web resources and services.